sat.trackr.live / text

‹ back to catalog

STARLINK-37224

NORAD 68671 · 2026-077K

PAYLOAD ACTIVE UNKNOWN

§ Identity

Operator
Country
US
Launch date
2026-04-11
Launch site
AFWTR
Launch vehicle
Mass (kg)
RCS (m²)

Purposes: comms

External: N2YO · Heavens-Above · Gunter

§ Orbital elements

Epoch: 2026-09-19T01:51:19.016352Z

Period
93.91 min
Inclination
97.2856°
Eccentricity
0.0001132
Mean motion
15.33458786 rev/d
Perigee alt
464.7 km
Apogee alt
466.3 km
Semi-major
6,843.6 km
B*
4.6113e-4
RAAN
131.9710°
Arg perigee
97.5862°
Mean anomaly
262.5509°
Rev number
2,479

§ Raw data

STARLINK-372241 68671U 26077K   26262.07730343  .00014848  00000+0  46113-3 0  99972 68671  97.2856 131.9710 0001132  97.5862 262.5509 15.33458786 24794

JSON: /api/v1/satellites/68671 · /tle

For live sub-satellite position, see the globe view (requires WebGL).

§ Visibility from observer

Set your observer location to see the next 7 days of passes ≥ 10°. The values pass through the URL so the page stays shareable.

No JS? Fill the form by hand. The geolocation button needs JavaScript.